Regional Weather Roundup
Issued by NWS

Home | Current Version | Previous Version | Graphics & Text | Print | Product List | Glossary On
Versions: 1 2 3 4 5 6 7 8 9 10 11 12 13 14 15 16 17 18 19 20 21 22 23 24 25 26 27 28 29 30 31 32 33 34 35 36 37 38 39 40 41 42 43 44 45 46 47 48 49
000
ASUS45 KSLC 010710
RWRUT

UTAH REGIONAL WEATHER ROUNDUP
NATIONAL WEATHER SERVICE SALT LAKE CITY UT
100 AM MDT WED OCT 01 2014

UTZ001>011-023>025-010800-

NORTHERN UTAH

CITY           SKY/WX    TMP DP  RH WIND       PRES   REMARKS
HILL AFB       MOCLDY    48  44  86 N10       29.96F
LOGAN          NOT AVBL
OGDEN          PTCLDY    50  41  71 NW5       29.95F
PROVO AIRPORT  CLOUDY    52  46  82 S8        29.96F
SALT LAKE CITY LGT RAIN  51  48  89 NW7       29.97R FOG
VERNAL         CLOUDY    48  42  80 N6        29.93F
WENDOVER       PTCLDY    50  34  53 NW13      30.00S
HEBER CITY     CLOUDY    45  43  93 CALM      29.97F
WEST JORDAN    CLOUDY    46  45  93 NW9       29.98R

$$

UTZ012>022-026-027-010800-

SOUTHERN UTAH

CITY           SKY/WX    TMP DP  RH WIND       PRES   REMARKS
BRYCE CANYON   CLOUDY    39  34  82 CALM      30.03S
CEDAR CITY     MOCLDY    52  38  58 S6        29.93F
MILFORD        LGT RAIN  53  48  83 N16       29.95R
MOAB/CYNLANDS  CLEAR     54  46  74 E5        29.87S
PRICE          CLOUDY    51  43  74 NE6       29.93F
ST GEORGE      CLOUDY    64  39  39 E8        29.84S
KANAB            N/A     48  39  71 N3        29.96F

$$

REGIONAL REPORTS     COLORADO/ARIZONA

CITY           SKY/WX    TMP DP  RH WIND       PRES   REMARKS
CRAIG, CO      CLOUDY    45  41  86 NE5       29.99F
GRAND JUNCTION MOCLDY    48  43  82 SE7       29.92F
RIFLE          MOCLDY    46  41  82 S10       29.97F
MONTROSE       PTCLDY    44  40  85 SE7       29.99S
CORTEZ         CLEAR     41  39  93 CALM      29.98F
PAGE, AZ       NOT AVBL
GRAND CANYON   PTCLDY    38  36  92 CALM      30.04R
KINGMAN        CLEAR     60  42  51 SE7       29.87F
FLAGSTAFF      CLEAR     41  35  79 W3        30.06F

$$

REGIONAL REPORTS    NEVADA/IDAHO/WYOMING

CITY           SKY/WX    TMP DP  RH WIND       PRES   REMARKS
LAS VEGAS, NV  CLEAR     73  37  27 S9        29.72S
ELY            CLEAR     46  38  73 N12       30.03R
ELKO           CLEAR     37  29  72 VRB3      30.07R
POCATELLO, ID  CLEAR     44  35  70 CALM      29.98S
BURLEY         CLEAR     44  34  67 SW14      29.97
EVANSTON, WY   CLEAR     40  36  86 CALM      30.00S
ROCK SPRINGS   MOCLDY    41  37  86 SW14      29.97S

$$


USA.gov is the U.S. government's official web portal to all federal, state and local government web resources and services.